994  
ASUS43 KGLD 141908  
RWRGLD  
 
GOODLAND FORECAST AREA HOURLY WEATHER ROUNDUP  
NATIONAL WEATHER SERVICE GOODLAND KS  
100 PM MDT WED APR 14 2021  
   
..OFFICIAL OBSERVATIONS
 
 
 
CITY SKY/WX TMP DP RH WIND PRES REMARKS
 
GOODLAND KS MOSUNNY 46 21 37 E14 30.20F  
HILL CITY KS MOSUNNY 52 23 32 NE10G21 30.26F  
IMPERIAL NEB MOSUNNY 43 24 47 VRB5G21 30.25F  
MCCOOK NEB MOSUNNY 46 23 40 N9G20 30.27F  
AKRON CO PTSUNNY 43 19 38 SE12G28 30.17F  
BURLINGTON CO PTSUNNY 47 22 37 SE14G21 30.18F  
LIMON CO MOSUNNY 46 22 38 SE17G25 30.13F  

 
   
..UNOFFICIAL OBSERVATIONS
 
 
 
CITY SKY/WX TMP DP RH WIND PRES REMARKS
 
COLBY KS MOSUNNY 48 22 35 E12G18 30.23F  
NORTON KS FAIR 48 27 43 NE10 30.29F  
SHARON SPRINGS N/A 48 21 34 NW6G16 N/A  
TRIBUNE KS PTSUNNY 50 27 40 NE10G20 30.21  
YUMA CO CLOUDY 45 21 39 E10G20 30.20  

 
 
 
CLICK HERE TO GO TO PREVIOUS BULLETINS.

The Nexlab KS Page
The Nexlab CO Page
The Nexlab NE Page Main Text Page